#timestamp,LO_Frequency,Hit,StdDev 
1601132415.5,286046999.0,N
1601132435.4,286046990.8,N
1601132455.2,286046991.0,N
1601132475.0,286046989.1,N
1601132475.9,286046989.1,N
1601132495.8,286046984.6,Y
1601132515.6,286046982.0,P
1601132535.4,286046980.5,N
1601132555.3,286046987.7,N
1601132575.1,286046984.5,N
1601132595.9,286046988.1,N
1601132615.7,286046985.8,N
1601132635.5,286046984.4,N
1601132655.4,286046982.8,Y
1601132675.2,286046991.8,P
1601132695.1,286046992.3,P
1601132696.0,286046992.3,P
1601132715.8,286046993.6,N
1601132735.6,286046993.5,N
1601132755.5,286046988.9,Y
1601132775.3,286046996.2,P
1601132795.2,286046997.1,N
1601132815.9,286046991.8,P
1601132835.7,286046987.1,Y
1601132855.6,286046995.8,P
1601132875.4,286046993.7,P
1601132895.2,286046990.3,P
1601132915.1,286046992.6,Y
1601132916.0,286046992.6,P
1601132935.8,286046999.2,N
1601132955.7,286046995.4,N
1601132975.5,286046997.0,N
1601132995.3,286046994.9,N
1601133015.2,286046995.1,N
1601133035.0,286046992.9,Y
1601133035.9,286046992.9,P
1601133055.8,286046999.6,N
1601133075.6,286046998.0,N
1601133095.4,286047000.8,N
1601133115.3,286047001.7,N
1601133135.1,286047005.8,N
1601133155.8,286047003.0,N
1601133175.7,286047010.3,N
1601133195.5,286047012.1,N
1601133215.4,286047008.7,N
1601133235.2,286047007.9,N
1601133255.0,286047015.0,N
1601133255.9,286047015.0,N
1601133275.8,286047016.3,N
1601133295.6,286047021.1,N
1601133315.5,286047026.4,Y
1601133335.3,286047021.4,P
1601133355.1,286047024.3,P
1601133375.9,286047023.8,P
1601133395.7,286047023.8,Y
1601133415.5,286047005.8,P
1601133435.4,286047002.5,N
1601133455.2,286046998.3,N
1601133475.1,286046999.3,N
1601133476.0,286046999.3,N
1601133495.8,286047003.0,N
1601133515.6,286047006.8,N
1601133535.5,286047006.6,N
1601133555.3,286047007.4,N
1601133575.2,286047001.2,N
1601133595.9,286047003.6,N
1601133615.7,286047002.3,N
1601133635.6,286047001.3,N
1601133655.4,286046998.2,N
1601133675.2,286046998.4,N
1601133695.1,286046999.4,N
1601133696.0,286046999.4,N
1601133715.8,286047002.1,N
1601133735.7,286047001.4,N
1601133755.5,286047001.2,N
1601133775.3,286046993.3,N
1601133795.2,286046990.8,N
1601133815.0,286046993.6,N
1601133815.9,286046993.6,N
1601133835.8,286046994.9,N
1601133855.6,286047000.3,N
1601133875.4,286047002.8,N
1601133895.3,286047002.0,N
1601133915.1,286046998.1,N
1601133935.8,286046995.7,N
1601133955.7,286046993.6,N
1601133975.5,286046994.5,N
1601133995.4,286046996.8,N
1601134015.2,286046995.8,N
1601134035.0,286046994.0,N
1601134035.9,286046994.0,N
1601134055.8,286046997.1,N
1601134075.6,286046993.4,N
1601134095.4,286046989.4,N
1601134115.3,286046987.3,Y
1601134135.1,286046989.6,P
1601134155.9,286046992.8,N
1601134175.7,286046988.0,P
1601134195.5,286046987.4,Y
1601134215.4,286047001.9,P
1601134235.2,286047003.8,N
1601134255.0,286047000.4,N
1601134256.0,286047000.4,N
1601134275.8,286047002.3,N
1601134295.6,286047004.7,N
1601134315.5,286047007.1,N
1601134335.3,286047009.2,N
1601134355.1,286047005.2,N
1601134375.9,286047008.9,N
1601134395.7,286047006.5,N
1601134415.6,286047006.9,N
1601134435.4,286047007.2,N
1601134455.2,286047001.9,N
1601134475.1,286046999.8,N
1601134476.0,286046999.8,N
1601134495.8,286047002.6,N
1601134515.6,286047002.2,N
1601134535.5,286046999.8,N
1601134555.3,286046998.6,N
1601134575.2,286046998.1,N
1601134595.9,286046998.1,N
1601134615.7,286047002.4,N
1601134635.6,286047002.6,N
1601134655.4,286047003.2,N
1601134675.2,286047007.6,N
1601134695.1,286047003.0,N
1601134696.0,286047003.0,N
1601134715.8,286047002.4,N
1601134735.7,286046996.6,N
1601134755.5,286046993.8,N
1601134775.3,286046990.5,N
1601134795.2,286046990.3,N
1601134815.0,286046993.2,N
1601134815.9,286046993.2,N
1601134835.8,286046987.5,N
1601134855.6,286046987.0,N
1601134875.4,286046989.5,N
1601134895.3,286046983.7,N
1601134915.1,286046987.0,N
1601134935.8,286046993.0,N
1601134955.7,286046990.2,N
1601134975.5,286046987.0,N
1601134995.4,286046986.9,N
1601135015.2,286046992.3,N
1601135035.0,286046988.6,N
1601135035.9,286046988.6,N
1601135055.8,286046990.6,N
1601135075.6,286046994.2,N
1601135095.4,286046992.7,N
1601135115.3,286046987.7,N
1601135135.1,286046987.5,N
1601135155.9,286046993.1,N
1601135175.7,286046989.1,N
1601135195.5,286046989.6,N
1601135215.4,286046986.5,N
1601135235.2,286046983.6,Y
1601135255.1,286046988.1,P
1601135256.0,286046988.1,P
1601135275.8,286046982.5,P
1601135295.6,286046977.8,Y
1601135315.5,286046989.6,P
1601135335.3,286046987.1,P
1601135355.2,286046990.0,P
1601135375.9,286046991.0,Y
1601135395.7,286046999.9,P
1601135415.6,286047004.4,N
1601135435.4,286047004.6,N
1601135455.2,286047006.4,N
1601135475.1,286047007.1,N
1601135476.0,286047007.1,N
1601135495.8,286047008.7,N
1601135515.7,286047010.2,N
1601135535.5,286047008.7,N
1601135555.3,286047011.7,N
1601135575.2,286047011.7,N
1601135595.0,286047011.5,N
1601135595.9,286047011.5,N
1601135615.8,286047011.5,N
1601135635.6,286047013.8,N
1601135655.4,286047012.9,N
1601135675.3,286047010.0,N
1601135695.1,286047007.2,N
1601135715.8,286047008.8,N
1601135735.7,286047013.8,N
1601135755.5,286047015.4,N
1601135775.4,286047013.7,N
1601135795.2,286047016.7,N
1601135815.0,286047015.5,N
1601135815.9,286047015.5,N
1601135835.8,286047011.3,N
1601135855.6,286047013.1,N
1601135875.4,286047013.8,N
1601135895.3,286047015.0,N
1601135915.1,286047013.4,N
1601135935.9,286047013.2,Y
1601135955.7,286047007.1,P
1601135975.5,286047008.6,P
1601135995.4,286047011.9,P
